owner,sensor,date,latitude,longitude,vertical_datum,sea_water_practical_salinity,qcFlag 
DISL,ioos:station:DISL:KATA:1,2011-10-01T00:00:00Z,30.2583,-88.2131,4.406,25.05,1111122 
DISL,ioos:station:DISL:KATA:1,2011-10-01T00:30:00Z,30.2583,-88.2131,4.42,24.99,1111122 
DISL,ioos:station:DISL:KATA:1,2011-10-01T01:00:00Z,30.2583,-88.2131,4.439,25.2,1111122 
DISL,ioos:station:DISL:KATA:1,2011-10-01T01:30:00Z,30.2583,-88.2131,4.463,24.83,1111122 
DISL,ioos:station:DISL:KATA:1,2011-10-01T02:00:00Z,30.2583,-88.2131,4.486,25.16,1111122 
DISL,ioos:station:DISL:KATA:1,2011-10-01T02:30:00Z,30.2583,-88.2131,4.505,24.52,1111122 
DISL,ioos:station:DISL:KATA:1,2011-10-01T03:00:00Z,30.2583,-88.2131,4.518,24.51,1111122 
DISL,ioos:station:DISL:KATA:1,2011-10-01T03:30:00Z,30.2583,-88.2131,4.523,24.31,1111122 
DISL,ioos:station:DISL:KATA:1,2011-10-01T04:00:00Z,30.2583,-88.2131,4.541,23.8,1111122 
DISL,ioos:station:DISL:KATA:1,2011-10-01T04:30:00Z,30.2583,-88.2131,4.556,23.73,1111122 
DISL,ioos:station:DISL:KATA:1,2011-10-01T05:00:00Z,30.2583,-88.2131,4.584,24.01,1111122 
DISL,ioos:station:DISL:KATA:1,2011-10-01T05:30:00Z,30.2583,-88.2131,4.598,23.94,1111122 
DISL,ioos:station:DISL:KATA:1,2011-10-01T06:00:00Z,30.2583,-88.2131,4.583,24.48,1111122 
DISL,ioos:station:DISL:KATA:1,2011-10-01T06:30:00Z,30.2583,-88.2131,4.553,24.6,1111122 
DISL,ioos:station:DISL:KATA:1,2011-10-01T07:00:00Z,30.2583,-88.2131,4.544,25.01,1111122 
DISL,ioos:station:DISL:KATA:1,2011-10-01T07:30:00Z,30.2583,-88.2131,4.536,24.62,1111122 
DISL,ioos:station:DISL:KATA:1,2011-10-01T08:00:00Z,30.2583,-88.2131,4.511,24.68,1111122 
DISL,ioos:station:DISL:KATA:1,2011-10-01T08:30:00Z,30.2583,-88.2131,4.493,24.77,1111122 
DISL,ioos:station:DISL:KATA:1,2011-10-01T09:00:00Z,30.2583,-88.2131,4.449,24.86,1111122 
DISL,ioos:station:DISL:KATA:1,2011-10-01T09:30:00Z,30.2583,-88.2131,4.426,24.76,1111122 
DISL,ioos:station:DISL:KATA:1,2011-10-01T10:00:00Z,30.2583,-88.2131,4.407,24.71,1111122 
DISL,ioos:station:DISL:KATA:1,2011-10-01T10:30:00Z,30.2583,-88.2131,4.379,24.62,1111122 
DISL,ioos:station:DISL:KATA:1,2011-10-01T11:00:00Z,30.2583,-88.2131,4.342,24.67,1111122 
DISL,ioos:station:DISL:KATA:1,2011-10-01T11:30:00Z,30.2583,-88.2131,4.298,23.97,1111122 
DISL,ioos:station:DISL:KATA:1,2011-10-01T12:00:00Z,30.2583,-88.2131,4.25,23.83,1111122 
DISL,ioos:station:DISL:KATA:1,2011-10-01T12:30:00Z,30.2583,-88.2131,4.209,23.62,1111122 
DISL,ioos:station:DISL:KATA:1,2011-10-01T13:00:00Z,30.2583,-88.2131,4.178,23.49,1111122 
DISL,ioos:station:DISL:KATA:1,2011-10-01T13:30:00Z,30.2583,-88.2131,4.156,23.29,1111122 
DISL,ioos:station:DISL:KATA:1,2011-10-01T14:00:00Z,30.2583,-88.2131,4.139,23.26,1111122 
DISL,ioos:station:DISL:KATA:1,2011-10-01T14:30:00Z,30.2583,-88.2131,4.135,23.04,1111122 
DISL,ioos:station:DISL:KATA:1,2011-10-01T15:00:00Z,30.2583,-88.2131,4.12,23.08,1111122 
DISL,ioos:station:DISL:KATA:1,2011-10-01T15:30:00Z,30.2583,-88.2131,4.121,22.94,1111122 
DISL,ioos:station:DISL:KATA:1,2011-10-01T16:00:00Z,30.2583,-88.2131,4.129,22.82,1111122 
DISL,ioos:station:DISL:KATA:1,2011-10-01T16:30:00Z,30.2583,-88.2131,4.143,22.44,1111122 
DISL,ioos:station:DISL:KATA:1,2011-10-01T17:00:00Z,30.2583,-88.2131,4.153,23.03,1111122 
DISL,ioos:station:DISL:KATA:1,2011-10-01T17:30:00Z,30.2583,-88.2131,4.178,23.04,1111122 
DISL,ioos:station:DISL:KATA:1,2011-10-01T18:00:00Z,30.2583,-88.2131,4.186,23.04,1111122 
DISL,ioos:station:DISL:KATA:1,2011-10-01T18:30:00Z,30.2583,-88.2131,4.199,23.16,1111122 
DISL,ioos:station:DISL:KATA:1,2011-10-01T19:00:00Z,30.2583,-88.2131,4.197,23.46,1111122 
DISL,ioos:station:DISL:KATA:1,2011-10-01T19:30:00Z,30.2583,-88.2131,4.218,24.25,1111122 
DISL,ioos:station:DISL:KATA:1,2011-10-01T20:00:00Z,30.2583,-88.2131,4.228,24.36,1111122 
DISL,ioos:station:DISL:KATA:1,2011-10-01T20:30:00Z,30.2583,-88.2131,4.241,24.37,1111122 
DISL,ioos:station:DISL:KATA:1,2011-10-01T21:00:00Z,30.2583,-88.2131,4.26,24.42,1111122 
DISL,ioos:station:DISL:KATA:1,2011-10-01T21:30:00Z,30.2583,-88.2131,4.273,24.14,1111122 
DISL,ioos:station:DISL:KATA:1,2011-10-01T22:00:00Z,30.2583,-88.2131,4.29,24.05,1111122 
DISL,ioos:station:DISL:KATA:1,2011-10-01T22:30:00Z,30.2583,-88.2131,4.315,23.88,1111122 
DISL,ioos:station:DISL:KATA:1,2011-10-01T23:00:00Z,30.2583,-88.2131,4.31,23.77,1111122 
DISL,ioos:station:DISL:KATA:1,2011-10-01T23:30:00Z,30.2583,-88.2131,4.313,24.17,1111122 
DISL,ioos:station:DISL:KATA:1,2011-10-02T00:00:00Z,30.2583,-88.2131,4.341,23.97,1111122 
DISL,ioos:station:DISL:KATA:1,2011-10-02T00:30:00Z,30.2583,-88.2131,4.374,23.91,1111122 
DISL,ioos:station:DISL:KATA:1,2011-10-02T01:00:00Z,30.2583,-88.2131,4.398,23.99,1111122 
DISL,ioos:station:DISL:KATA:1,2011-10-02T01:30:00Z,30.2583,-88.2131,4.415,24.3,1111122 
DISL,ioos:station:DISL:KATA:1,2011-10-02T02:00:00Z,30.2583,-88.2131,4.426,24.34,1111122 
DISL,ioos:station:DISL:KATA:1,2011-10-02T02:30:00Z,30.2583,-88.2131,4.437,24.3,1111122 
DISL,ioos:station:DISL:KATA:1,2011-10-02T03:00:00Z,30.2583,-88.2131,4.458,24.27,1111122 
DISL,ioos:station:DISL:KATA:1,2011-10-02T03:30:00Z,30.2583,-88.2131,4.476,24.26,1111122 
DISL,ioos:station:DISL:KATA:1,2011-10-02T04:00:00Z,30.2583,-88.2131,4.485,24.19,1111122 
DISL,ioos:station:DISL:KATA:1,2011-10-02T04:30:00Z,30.2583,-88.2131,4.492,24.41,1111122 
DISL,ioos:station:DISL:KATA:1,2011-10-02T05:00:00Z,30.2583,-88.2131,4.506,24.35,1111122 
DISL,ioos:station:DISL:KATA:1,2011-10-02T05:30:00Z,30.2583,-88.2131,4.536,24.28,1111122 
DISL,ioos:station:DISL:KATA:1,2011-10-02T06:00:00Z,30.2583,-88.2131,4.544,24.25,1111122 
DISL,ioos:station:DISL:KATA:1,2011-10-02T06:30:00Z,30.2583,-88.2131,4.548,24.19,1111122 
DISL,ioos:station:DISL:KATA:1,2011-10-02T07:00:00Z,30.2583,-88.2131,4.554,24.19,1111122 
DISL,ioos:station:DISL:KATA:1,2011-10-02T07:30:00Z,30.2583,-88.2131,4.56,24.32,1111122 
DISL,ioos:station:DISL:KATA:1,2011-10-02T08:00:00Z,30.2583,-88.2131,4.56,24.33,1111122 
DISL,ioos:station:DISL:KATA:1,2011-10-02T08:30:00Z,30.2583,-88.2131,4.565,23.8,1111122 
DISL,ioos:station:DISL:KATA:1,2011-10-02T09:00:00Z,30.2583,-88.2131,4.564,24.05,1111122 
DISL,ioos:station:DISL:KATA:1,2011-10-02T09:30:00Z,30.2583,-88.2131,4.555,23.67,1111122 
DISL,ioos:station:DISL:KATA:1,2011-10-02T10:00:00Z,30.2583,-88.2131,4.53,23.86,1111122 
DISL,ioos:station:DISL:KATA:1,2011-10-02T10:30:00Z,30.2583,-88.2131,4.508,23.85,1111122 
DISL,ioos:station:DISL:KATA:1,2011-10-02T11:00:00Z,30.2583,-88.2131,4.468,24.08,1111122 
DISL,ioos:station:DISL:KATA:1,2011-10-02T11:30:00Z,30.2583,-88.2131,4.416,24.12,1111122 
DISL,ioos:station:DISL:KATA:1,2011-10-02T12:00:00Z,30.2583,-88.2131,4.369,24.18,1111122 
DISL,ioos:station:DISL:KATA:1,2011-10-02T12:30:00Z,30.2583,-88.2131,4.317,23.71,1111122 
DISL,ioos:station:DISL:KATA:1,2011-10-02T13:00:00Z,30.2583,-88.2131,4.268,22.91,1111122 
DISL,ioos:station:DISL:KATA:1,2011-10-02T13:30:00Z,30.2583,-88.2131,4.224,22.09,1111122 
DISL,ioos:station:DISL:KATA:1,2011-10-02T14:00:00Z,30.2583,-88.2131,4.196,21.57,1111122 
DISL,ioos:station:DISL:KATA:1,2011-10-02T14:30:00Z,30.2583,-88.2131,4.162,21.67,1111122 
DISL,ioos:station:DISL:KATA:1,2011-10-02T15:00:00Z,30.2583,-88.2131,4.138,21.53,1111122 
DISL,ioos:station:DISL:KATA:1,2011-10-02T15:30:00Z,30.2583,-88.2131,4.13,21.11,1111122 
DISL,ioos:station:DISL:KATA:1,2011-10-02T16:00:00Z,30.2583,-88.2131,4.12,21.54,1111122 
DISL,ioos:station:DISL:KATA:1,2011-10-02T16:30:00Z,30.2583,-88.2131,4.115,21.55,1111122 
DISL,ioos:station:DISL:KATA:1,2011-10-02T17:00:00Z,30.2583,-88.2131,4.124,21.97,1111122 
DISL,ioos:station:DISL:KATA:1,2011-10-02T17:30:00Z,30.2583,-88.2131,4.132,22.57,1111122 
DISL,ioos:station:DISL:KATA:1,2011-10-02T18:00:00Z,30.2583,-88.2131,4.144,22.63,1111122 
DISL,ioos:station:DISL:KATA:1,2011-10-02T18:30:00Z,30.2583,-88.2131,4.151,22.73,1111122 
DISL,ioos:station:DISL:KATA:1,2011-10-02T19:00:00Z,30.2583,-88.2131,4.153,23.02,1111122 
DISL,ioos:station:DISL:KATA:1,2011-10-02T19:30:00Z,30.2583,-88.2131,4.148,23.07,1111122 
DISL,ioos:station:DISL:KATA:1,2011-10-02T20:00:00Z,30.2583,-88.2131,4.147,23.07,1111122 
DISL,ioos:station:DISL:KATA:1,2011-10-02T20:30:00Z,30.2583,-88.2131,4.149,23.07,1111122 
DISL,ioos:station:DISL:KATA:1,2011-10-02T21:00:00Z,30.2583,-88.2131,4.156,23.05,1111122 
DISL,ioos:station:DISL:KATA:1,2011-10-02T21:30:00Z,30.2583,-88.2131,4.173,23.05,1111122 
DISL,ioos:station:DISL:KATA:1,2011-10-02T22:00:00Z,30.2583,-88.2131,4.194,23.05,1111122 
DISL,ioos:station:DISL:KATA:1,2011-10-02T22:30:00Z,30.2583,-88.2131,4.22,23.06,1111122 
DISL,ioos:station:DISL:KATA:1,2011-10-02T23:00:00Z,30.2583,-88.2131,4.249,23.05,1111122 
DISL,ioos:station:DISL:KATA:1,2011-10-02T23:30:00Z,30.2583,-88.2131,4.285,22.92,1111122 
DISL,ioos:station:DISL:KATA:1,2011-10-03T00:00:00Z,30.2583,-88.2131,4.313,22.8,1111122 
DISL,ioos:station:DISL:KATA:1,2011-10-03T00:30:00Z,30.2583,-88.2131,4.333,22.94,1111122 
DISL,ioos:station:DISL:KATA:1,2011-10-03T01:00:00Z,30.2583,-88.2131,4.356,23.1,1111122 
DISL,ioos:station:DISL:KATA:1,2011-10-03T01:30:00Z,30.2583,-88.2131,4.381,22.59,1111122 
DISL,ioos:station:DISL:KATA:1,2011-10-03T02:00:00Z,30.2583,-88.2131,4.402,22.67,1111122 
DISL,ioos:station:DISL:KATA:1,2011-10-03T02:30:00Z,30.2583,-88.2131,4.418,22.4,1111122 
DISL,ioos:station:DISL:KATA:1,2011-10-03T03:00:00Z,30.2583,-88.2131,4.434,22.45,1111122 
DISL,ioos:station:DISL:KATA:1,2011-10-03T03:30:00Z,30.2583,-88.2131,4.456,22.81,1111122 
DISL,ioos:station:DISL:KATA:1,2011-10-03T04:00:00Z,30.2583,-88.2131,4.478,22.84,1111122 
DISL,ioos:station:DISL:KATA:1,2011-10-03T04:30:00Z,30.2583,-88.2131,4.502,22.71,1111122 
DISL,ioos:station:DISL:KATA:1,2011-10-03T05:00:00Z,30.2583,-88.2131,4.516,22.77,1111122 
DISL,ioos:station:DISL:KATA:1,2011-10-03T05:30:00Z,30.2583,-88.2131,4.525,22.75,1111122 
DISL,ioos:station:DISL:KATA:1,2011-10-03T06:00:00Z,30.2583,-88.2131,4.534,23.21,1111122 
DISL,ioos:station:DISL:KATA:1,2011-10-03T06:30:00Z,30.2583,-88.2131,4.538,23.3,1111122 
DISL,ioos:station:DISL:KATA:1,2011-10-03T07:00:00Z,30.2583,-88.2131,4.541,23.35,1111122 
DISL,ioos:station:DISL:KATA:1,2011-10-03T07:30:00Z,30.2583,-88.2131,4.543,23.43,1111122 
DISL,ioos:station:DISL:KATA:1,2011-10-03T08:00:00Z,30.2583,-88.2131,4.54,23.47,1111122 
DISL,ioos:station:DISL:KATA:1,2011-10-03T08:30:00Z,30.2583,-88.2131,4.531,23.54,1111122 
DISL,ioos:station:DISL:KATA:1,2011-10-03T09:00:00Z,30.2583,-88.2131,4.528,23.39,1111122 
DISL,ioos:station:DISL:KATA:1,2011-10-03T09:30:00Z,30.2583,-88.2131,4.51,23.16,1111122 
DISL,ioos:station:DISL:KATA:1,2011-10-03T10:00:00Z,30.2583,-88.2131,4.487,23.25,1111122 
DISL,ioos:station:DISL:KATA:1,2011-10-03T10:30:00Z,30.2583,-88.2131,4.475,23.1,1111122 
DISL,ioos:station:DISL:KATA:1,2011-10-03T11:00:00Z,30.2583,-88.2131,4.462,23.13,1111122 
DISL,ioos:station:DISL:KATA:1,2011-10-03T11:30:00Z,30.2583,-88.2131,4.444,23.57,1111122 
DISL,ioos:station:DISL:KATA:1,2011-10-03T12:00:00Z,30.2583,-88.2131,4.417,23.01,1111122 
DISL,ioos:station:DISL:KATA:1,2011-10-03T12:30:00Z,30.2583,-88.2131,4.378,23.19,1111122 
DISL,ioos:station:DISL:KATA:1,2011-10-03T13:00:00Z,30.2583,-88.2131,4.337,23.07,1111122 
DISL,ioos:station:DISL:KATA:1,2011-10-03T13:30:00Z,30.2583,-88.2131,4.286,22.79,1111122 
DISL,ioos:station:DISL:KATA:1,2011-10-03T14:00:00Z,30.2583,-88.2131,4.244,22.49,1111122 
DISL,ioos:station:DISL:KATA:1,2011-10-03T14:30:00Z,30.2583,-88.2131,4.208,22.31,1111122 
DISL,ioos:station:DISL:KATA:1,2011-10-03T15:00:00Z,30.2583,-88.2131,4.176,22.26,1111122 
DISL,ioos:station:DISL:KATA:1,2011-10-03T15:30:00Z,30.2583,-88.2131,4.15,22.25,1111122 
DISL,ioos:station:DISL:KATA:1,2011-10-03T16:00:00Z,30.2583,-88.2131,4.133,22.22,1111122 
DISL,ioos:station:DISL:KATA:1,2011-10-03T16:30:00Z,30.2583,-88.2131,4.125,22.18,1111122 
DISL,ioos:station:DISL:KATA:1,2011-10-03T17:00:00Z,30.2583,-88.2131,4.118,22.14,1111122 
DISL,ioos:station:DISL:KATA:1,2011-10-03T17:30:00Z,30.2583,-88.2131,4.114,22.13,1111122 
DISL,ioos:station:DISL:KATA:1,2011-10-03T18:00:00Z,30.2583,-88.2131,4.113,22.13,1111122 
DISL,ioos:station:DISL:KATA:1,2011-10-03T18:30:00Z,30.2583,-88.2131,4.113,22.08,1111122 
DISL,ioos:station:DISL:KATA:1,2011-10-03T19:00:00Z,30.2583,-88.2131,4.119,22.02,1111122 
DISL,ioos:station:DISL:KATA:1,2011-10-03T19:30:00Z,30.2583,-88.2131,4.124,22.04,1111122 
DISL,ioos:station:DISL:KATA:1,2011-10-03T20:00:00Z,30.2583,-88.2131,4.128,22.04,1111122 
DISL,ioos:station:DISL:KATA:1,2011-10-03T20:30:00Z,30.2583,-88.2131,4.124,22.04,1111122 
DISL,ioos:station:DISL:KATA:1,2011-10-03T21:00:00Z,30.2583,-88.2131,4.13,22.04,1111122 
DISL,ioos:station:DISL:KATA:1,2011-10-03T21:30:00Z,30.2583,-88.2131,4.135,22.07,1111122 
DISL,ioos:station:DISL:KATA:1,2011-10-03T22:00:00Z,30.2583,-88.2131,4.156,22.15,1111122 
DISL,ioos:station:DISL:KATA:1,2011-10-03T22:30:00Z,30.2583,-88.2131,4.179,22.24,1111122 
DISL,ioos:station:DISL:KATA:1,2011-10-03T23:00:00Z,30.2583,-88.2131,4.204,22.31,1111122 
DISL,ioos:station:DISL:KATA:1,2011-10-03T23:30:00Z,30.2583,-88.2131,4.232,22.33,1111122 
DISL,ioos:station:DISL:KATA:1,2011-10-04T00:00:00Z,30.2583,-88.2131,4.262,22.37,1111122 
DISL,ioos:station:DISL:KATA:1,2011-10-04T00:30:00Z,30.2583,-88.2131,4.286,22.37,1111122 
DISL,ioos:station:DISL:KATA:1,2011-10-04T01:00:00Z,30.2583,-88.2131,4.32,22.41,1111122 
DISL,ioos:station:DISL:KATA:1,2011-10-04T01:30:00Z,30.2583,-88.2131,4.351,22.41,1111122 
DISL,ioos:station:DISL:KATA:1,2011-10-04T02:00:00Z,30.2583,-88.2131,4.376,22.69,1111122 
DISL,ioos:station:DISL:KATA:1,2011-10-04T02:30:00Z,30.2583,-88.2131,4.403,22.74,1111122 
DISL,ioos:station:DISL:KATA:1,2011-10-04T03:00:00Z,30.2583,-88.2131,4.424,22.76,1111122 
DISL,ioos:station:DISL:KATA:1,2011-10-04T03:30:00Z,30.2583,-88.2131,4.454,22.83,1111122 
DISL,ioos:station:DISL:KATA:1,2011-10-04T04:00:00Z,30.2583,-88.2131,4.479,22.45,1111122 
DISL,ioos:station:DISL:KATA:1,2011-10-04T04:30:00Z,30.2583,-88.2131,4.498,22.62,1111122 
DISL,ioos:station:DISL:KATA:1,2011-10-04T05:00:00Z,30.2583,-88.2131,4.501,23.04,1111122 
DISL,ioos:station:DISL:KATA:1,2011-10-04T05:30:00Z,30.2583,-88.2131,4.508,23.23,1111122 
DISL,ioos:station:DISL:KATA:1,2011-10-04T06:00:00Z,30.2583,-88.2131,4.517,23.29,1111122 
DISL,ioos:station:DISL:KATA:1,2011-10-04T06:30:00Z,30.2583,-88.2131,4.53,23.38,1111122 
DISL,ioos:station:DISL:KATA:1,2011-10-04T07:00:00Z,30.2583,-88.2131,4.552,23.48,1111122 
DISL,ioos:station:DISL:KATA:1,2011-10-04T07:30:00Z,30.2583,-88.2131,4.572,23.46,1111122 
DISL,ioos:station:DISL:KATA:1,2011-10-04T08:00:00Z,30.2583,-88.2131,4.583,23.49,1111122 
DISL,ioos:station:DISL:KATA:1,2011-10-04T08:30:00Z,30.2583,-88.2131,4.576,23.55,1111122 
DISL,ioos:station:DISL:KATA:1,2011-10-04T09:00:00Z,30.2583,-88.2131,4.559,23.58,1111122 
DISL,ioos:station:DISL:KATA:1,2011-10-04T09:30:00Z,30.2583,-88.2131,4.545,23.61,1111122 
DISL,ioos:station:DISL:KATA:1,2011-10-04T10:00:00Z,30.2583,-88.2131,4.52,23.64,1111122 
DISL,ioos:station:DISL:KATA:1,2011-10-04T10:30:00Z,30.2583,-88.2131,4.5,23.69,1111122 
DISL,ioos:station:DISL:KATA:1,2011-10-04T11:00:00Z,30.2583,-88.2131,4.487,23.68,1111122 
DISL,ioos:station:DISL:KATA:1,2011-10-04T11:30:00Z,30.2583,-88.2131,4.47,23.69,1111122 
DISL,ioos:station:DISL:KATA:1,2011-10-04T12:00:00Z,30.2583,-88.2131,4.457,23.7,1111122 
DISL,ioos:station:DISL:KATA:1,2011-10-04T12:30:00Z,30.2583,-88.2131,4.44,23.65,1111122 
DISL,ioos:station:DISL:KATA:1,2011-10-04T13:00:00Z,30.2583,-88.2131,4.427,23.63,1111122 
DISL,ioos:station:DISL:KATA:1,2011-10-04T13:30:00Z,30.2583,-88.2131,4.407,23.63,1111122 
DISL,ioos:station:DISL:KATA:1,2011-10-04T14:00:00Z,30.2583,-88.2131,4.371,23.51,1111122 
DISL,ioos:station:DISL:KATA:1,2011-10-04T14:30:00Z,30.2583,-88.2131,4.34,23.38,1111122 
DISL,ioos:station:DISL:KATA:1,2011-10-04T15:00:00Z,30.2583,-88.2131,4.302,23.26,1111122 
DISL,ioos:station:DISL:KATA:1,2011-10-04T15:30:00Z,30.2583,-88.2131,4.267,23.23,1111122 
DISL,ioos:station:DISL:KATA:1,2011-10-04T16:00:00Z,30.2583,-88.2131,4.232,23.04,1111122 
DISL,ioos:station:DISL:KATA:1,2011-10-04T16:30:00Z,30.2583,-88.2131,4.207,22.69,1111122 
DISL,ioos:station:DISL:KATA:1,2011-10-04T17:00:00Z,30.2583,-88.2131,4.186,22.59,1111122 
DISL,ioos:station:DISL:KATA:1,2011-10-04T17:30:00Z,30.2583,-88.2131,4.175,22.6,1111122 
DISL,ioos:station:DISL:KATA:1,2011-10-04T18:00:00Z,30.2583,-88.2131,4.169,22.59,1111122 
DISL,ioos:station:DISL:KATA:1,2011-10-04T18:30:00Z,30.2583,-88.2131,4.16,22.42,1111122 
DISL,ioos:station:DISL:KATA:1,2011-10-04T19:00:00Z,30.2583,-88.2131,4.157,22.23,1111122 
DISL,ioos:station:DISL:KATA:1,2011-10-04T19:30:00Z,30.2583,-88.2131,4.165,22.2,1111122 
DISL,ioos:station:DISL:KATA:1,2011-10-04T20:00:00Z,30.2583,-88.2131,4.167,22.22,1111122 
DISL,ioos:station:DISL:KATA:1,2011-10-04T20:30:00Z,30.2583,-88.2131,4.169,22.19,1111122 
DISL,ioos:station:DISL:KATA:1,2011-10-04T21:00:00Z,30.2583,-88.2131,4.173,22.28,1111122 
DISL,ioos:station:DISL:KATA:1,2011-10-04T21:30:00Z,30.2583,-88.2131,4.179,22.28,1111122 
DISL,ioos:station:DISL:KATA:1,2011-10-04T22:00:00Z,30.2583,-88.2131,4.19,22.33,1111122 
DISL,ioos:station:DISL:KATA:1,2011-10-04T22:30:00Z,30.2583,-88.2131,4.199,22.3,1111122 
DISL,ioos:station:DISL:KATA:1,2011-10-04T23:00:00Z,30.2583,-88.2131,4.213,22.5,1111122 
DISL,ioos:station:DISL:KATA:1,2011-10-04T23:30:00Z,30.2583,-88.2131,4.228,22.95,1111122 
DISL,ioos:station:DISL:KATA:1,2011-10-05T00:00:00Z,30.2583,-88.2131,4.26,22.9,1111122 
DISL,ioos:station:DISL:KATA:1,2011-10-05T00:30:00Z,30.2583,-88.2131,4.284,22.94,1111122 
DISL,ioos:station:DISL:KATA:1,2011-10-05T01:00:00Z,30.2583,-88.2131,4.316,23.02,1111122 
DISL,ioos:station:DISL:KATA:1,2011-10-05T01:30:00Z,30.2583,-88.2131,4.358,23.05,1111122 
DISL,ioos:station:DISL:KATA:1,2011-10-05T02:00:00Z,30.2583,-88.2131,4.389,23.09,1111122 
DISL,ioos:station:DISL:KATA:1,2011-10-05T02:30:00Z,30.2583,-88.2131,4.412,23.17,1111122 
DISL,ioos:station:DISL:KATA:1,2011-10-05T03:00:00Z,30.2583,-88.2131,4.438,23.24,1111122 
DISL,ioos:station:DISL:KATA:1,2011-10-05T03:30:00Z,30.2583,-88.2131,4.465,23.49,1111122 
DISL,ioos:station:DISL:KATA:1,2011-10-05T04:00:00Z,30.2583,-88.2131,4.484,23.54,1111122 
DISL,ioos:station:DISL:KATA:1,2011-10-05T04:30:00Z,30.2583,-88.2131,4.502,23.8,1111122 
DISL,ioos:station:DISL:KATA:1,2011-10-05T05:00:00Z,30.2583,-88.2131,4.519,24.12,1111122 
DISL,ioos:station:DISL:KATA:1,2011-10-05T05:30:00Z,30.2583,-88.2131,4.535,24.4,1111122 
DISL,ioos:station:DISL:KATA:1,2011-10-05T06:00:00Z,30.2583,-88.2131,4.545,24.57,1111122 
DISL,ioos:station:DISL:KATA:1,2011-10-05T06:30:00Z,30.2583,-88.2131,4.558,24.67,1111122 
DISL,ioos:station:DISL:KATA:1,2011-10-05T07:00:00Z,30.2583,-88.2131,4.574,24.43,1111122 
DISL,ioos:station:DISL:KATA:1,2011-10-05T07:30:00Z,30.2583,-88.2131,4.593,24.59,1111122 
DISL,ioos:station:DISL:KATA:1,2011-10-05T08:00:00Z,30.2583,-88.2131,4.609,24.63,1111122 
DISL,ioos:station:DISL:KATA:1,2011-10-05T08:30:00Z,30.2583,-88.2131,4.621,24.84,1111122 
DISL,ioos:station:DISL:KATA:1,2011-10-05T09:00:00Z,30.2583,-88.2131,4.627,24.87,1111122 
DISL,ioos:station:DISL:KATA:1,2011-10-05T09:30:00Z,30.2583,-88.2131,4.629,24.81,1111122 
DISL,ioos:station:DISL:KATA:1,2011-10-05T10:00:00Z,30.2583,-88.2131,4.616,24.87,1111122 
DISL,ioos:station:DISL:KATA:1,2011-10-05T10:30:00Z,30.2583,-88.2131,4.602,25.09,1111122 
DISL,ioos:station:DISL:KATA:1,2011-10-05T11:00:00Z,30.2583,-88.2131,4.579,25.09,1111122 
DISL,ioos:station:DISL:KATA:1,2011-10-05T11:30:00Z,30.2583,-88.2131,4.561,25.35,1111122 
DISL,ioos:station:DISL:KATA:1,2011-10-05T12:00:00Z,30.2583,-88.2131,4.546,25.62,1111122 
DISL,ioos:station:DISL:KATA:1,2011-10-05T12:30:00Z,30.2583,-88.2131,4.533,25.56,1111122 
DISL,ioos:station:DISL:KATA:1,2011-10-05T13:00:00Z,30.2583,-88.2131,4.508,25.75,1111122 
DISL,ioos:station:DISL:KATA:1,2011-10-05T13:30:00Z,30.2583,-88.2131,4.488,25.91,1111122 
DISL,ioos:station:DISL:KATA:1,2011-10-05T14:00:00Z,30.2583,-88.2131,4.459,25.97,1111122 
DISL,ioos:station:DISL:KATA:1,2011-10-05T14:30:00Z,30.2583,-88.2131,4.435,26.03,1111122 
DISL,ioos:station:DISL:KATA:1,2011-10-05T15:00:00Z,30.2583,-88.2131,4.404,26.07,1111122 
DISL,ioos:station:DISL:KATA:1,2011-10-05T15:30:00Z,30.2583,-88.2131,4.372,26.08,1111122 
DISL,ioos:station:DISL:KATA:1,2011-10-05T16:00:00Z,30.2583,-88.2131,4.343,26.07,1111122 
DISL,ioos:station:DISL:KATA:1,2011-10-05T16:30:00Z,30.2583,-88.2131,4.314,26.07,1111122 
DISL,ioos:station:DISL:KATA:1,2011-10-05T17:00:00Z,30.2583,-88.2131,4.283,26.06,1111122 
DISL,ioos:station:DISL:KATA:1,2011-10-05T17:30:00Z,30.2583,-88.2131,4.256,26.04,1111122 
DISL,ioos:station:DISL:KATA:1,2011-10-05T18:00:00Z,30.2583,-88.2131,4.241,26.05,1111122 
DISL,ioos:station:DISL:KATA:1,2011-10-05T18:30:00Z,30.2583,-88.2131,4.221,25.94,1111122 
DISL,ioos:station:DISL:KATA:1,2011-10-05T19:00:00Z,30.2583,-88.2131,4.207,25.94,1111122 
DISL,ioos:station:DISL:KATA:1,2011-10-05T19:30:00Z,30.2583,-88.2131,4.2,25.96,1111122 
DISL,ioos:station:DISL:KATA:1,2011-10-05T20:00:00Z,30.2583,-88.2131,4.191,25.98,1111122 
DISL,ioos:station:DISL:KATA:1,2011-10-05T20:30:00Z,30.2583,-88.2131,4.188,26.14,1111122 
DISL,ioos:station:DISL:KATA:1,2011-10-05T21:00:00Z,30.2583,-88.2131,4.199,26.29,1111122 
DISL,ioos:station:DISL:KATA:1,2011-10-05T21:30:00Z,30.2583,-88.2131,4.207,26.51,1111122 
DISL,ioos:station:DISL:KATA:1,2011-10-05T22:00:00Z,30.2583,-88.2131,4.219,26.84,1111122 
DISL,ioos:station:DISL:KATA:1,2011-10-05T22:30:00Z,30.2583,-88.2131,4.226,27.17,1111122 
DISL,ioos:station:DISL:KATA:1,2011-10-05T23:00:00Z,30.2583,-88.2131,4.234,27.19,1111122 
DISL,ioos:station:DISL:KATA:1,2011-10-05T23:30:00Z,30.2583,-88.2131,4.246,26.83,1111122 
DISL,ioos:station:DISL:KATA:1,2011-10-06T00:00:00Z,30.2583,-88.2131,4.261,26.6,1111122 
DISL,ioos:station:DISL:KATA:1,2011-10-06T00:30:00Z,30.2583,-88.2131,4.27,27.41,1111122 
DISL,ioos:station:DISL:KATA:1,2011-10-06T01:00:00Z,30.2583,-88.2131,4.291,27.48,1111122 
DISL,ioos:station:DISL:KATA:1,2011-10-06T01:30:00Z,30.2583,-88.2131,4.311,27.55,1111122 
DISL,ioos:station:DISL:KATA:1,2011-10-06T02:00:00Z,30.2583,-88.2131,4.346,27.62,1111122 
DISL,ioos:station:DISL:KATA:1,2011-10-06T02:30:00Z,30.2583,-88.2131,4.378,27.47,1111122 
DISL,ioos:station:DISL:KATA:1,2011-10-06T03:00:00Z,30.2583,-88.2131,4.403,27.47,1111122 
DISL,ioos:station:DISL:KATA:1,2011-10-06T03:30:00Z,30.2583,-88.2131,4.425,27.47,1111122 
DISL,ioos:station:DISL:KATA:1,2011-10-06T04:00:00Z,30.2583,-88.2131,4.447,27.34,1111122 
DISL,ioos:station:DISL:KATA:1,2011-10-06T04:30:00Z,30.2583,-88.2131,4.459,27.2,1111122 
DISL,ioos:station:DISL:KATA:1,2011-10-06T05:00:00Z,30.2583,-88.2131,4.463,27.37,1111122 
DISL,ioos:station:DISL:KATA:1,2011-10-06T05:30:00Z,30.2583,-88.2131,4.468,27.25,1111122 
DISL,ioos:station:DISL:KATA:1,2011-10-06T06:00:00Z,30.2583,-88.2131,4.48,27.12,1111122 
DISL,ioos:station:DISL:KATA:1,2011-10-06T06:30:00Z,30.2583,-88.2131,4.498,27.25,1111122 
DISL,ioos:station:DISL:KATA:1,2011-10-06T07:00:00Z,30.2583,-88.2131,4.523,27.25,1111122 
DISL,ioos:station:DISL:KATA:1,2011-10-06T07:30:00Z,30.2583,-88.2131,4.551,27.2,1111122 
DISL,ioos:station:DISL:KATA:1,2011-10-06T08:00:00Z,30.2583,-88.2131,4.571,27.13,1111122 
DISL,ioos:station:DISL:KATA:1,2011-10-06T08:30:00Z,30.2583,-88.2131,4.595,27.0,1111122 
DISL,ioos:station:DISL:KATA:1,2011-10-06T09:00:00Z,30.2583,-88.2131,4.594,27.18,1111122 
DISL,ioos:station:DISL:KATA:1,2011-10-06T09:30:00Z,30.2583,-88.2131,4.593,27.33,1111122 
DISL,ioos:station:DISL:KATA:1,2011-10-06T10:00:00Z,30.2583,-88.2131,4.592,27.46,1111122 
DISL,ioos:station:DISL:KATA:1,2011-10-06T10:30:00Z,30.2583,-88.2131,4.582,27.59,1111122 
DISL,ioos:station:DISL:KATA:1,2011-10-06T11:00:00Z,30.2583,-88.2131,4.574,27.67,1111122 
DISL,ioos:station:DISL:KATA:1,2011-10-06T11:30:00Z,30.2583,-88.2131,4.572,27.71,1111122 
DISL,ioos:station:DISL:KATA:1,2011-10-06T12:00:00Z,30.2583,-88.2131,4.574,27.8,1111122 
DISL,ioos:station:DISL:KATA:1,2011-10-06T12:30:00Z,30.2583,-88.2131,4.578,27.88,1111122 
DISL,ioos:station:DISL:KATA:1,2011-10-06T13:00:00Z,30.2583,-88.2131,4.585,27.93,1111122 
DISL,ioos:station:DISL:KATA:1,2011-10-06T13:30:00Z,30.2583,-88.2131,4.601,28.04,1111122 
DISL,ioos:station:DISL:KATA:1,2011-10-06T14:00:00Z,30.2583,-88.2131,4.583,28.03,1111122 